KINEIS-3D

Last updated on Mon Sep 21 2026 00:02:54 GMT+0000 (Coordinated Universal Time)

1 61221U 24172B 26263.34782627 .00001151 00000+0 18996-3 0 9999 2 61221 98.0407 352.2346 0001551 148.8816 211.2483 14.72323023107359
UTC large
Height (km)
Speed (km/s)
/
Latitude / Longitude
Inclination (degrees)
Orbital Period (minutes)
Azimuth
Elevation
Range (km)
Doppler Factor

Next 0 passes for location: London (51.5072 / 0.1276)

No passes found over London.
KINEIS-3D